Time,TemperatureF,DewpointF,PressureIn,WindDirection,WindDirectionDegrees,WindSpeedMPH,WindSpeedGustMPH,Humidity,HourlyPrecipIn,Conditions,Clouds,dailyrainin,SolarRadiationWatts/m^2,SoftwareType,DateUTC
2013-07-04 00:00:00,66.4,60.7,30.03,ESE,110,4.0,5.0,82,0.00,,,0.00,0,Wunderground v.1.15,2013-07-04 05:00:00,
2013-07-04 00:05:00,66.5,60.8,30.03,ESE,110,4.0,5.0,82,0.00,,,0.00,0,Wunderground v.1.15,2013-07-04 05:05:00,
2013-07-04 00:10:00,66.7,60.7,30.03,ESE,110,5.0,5.0,81,0.00,,,0.00,0,Wunderground v.1.15,2013-07-04 05:10:00,
2013-07-04 00:15:00,66.8,60.8,30.03,ESE,111,5.0,5.0,81,0.00,,,0.00,0,Wunderground v.1.15,2013-07-04 05:15:00,
2013-07-04 00:20:00,67.0,60.6,30.03,ESE,111,5.0,5.0,80,0.00,,,0.00,0,Wunderground v.1.15,2013-07-04 05:20:00,
2013-07-04 00:30:00,67.2,60.8,30.03,ESE,112,5.0,5.0,80,0.00,,,0.00,0,Wunderground v.1.15,2013-07-04 05:30:00,
2013-07-04 00:35:00,67.2,60.8,30.03,ESE,112,4.0,5.0,80,0.00,,,0.00,0,Wunderground v.1.15,2013-07-04 05:35:00,
2013-07-04 00:40:00,67.1,61.1,30.02,ESE,112,4.0,4.0,81,0.00,,,0.00,0,Wunderground v.1.15,2013-07-04 05:40:00,
2013-07-04 00:45:00,67.0,61.0,30.02,ESE,112,4.0,4.0,81,0.00,,,0.00,0,Wunderground v.1.15,2013-07-04 05:45:00,
2013-07-04 00:50:00,66.8,60.8,30.02,ESE,112,4.0,4.0,81,0.00,,,0.00,0,Wunderground v.1.15,2013-07-04 05:50:00,
2013-07-04 01:00:00,66.6,60.9,30.02,ESE,112,4.0,4.0,82,0.00,,,0.00,0,Wunderground v.1.15,2013-07-04 06:00:00,
2013-07-04 01:05:00,66.5,60.8,30.02,ESE,112,3.0,4.0,82,0.00,,,0.00,0,Wunderground v.1.15,2013-07-04 06:05:00,
2013-07-04 01:10:00,66.3,60.6,30.02,ESE,112,3.0,3.0,82,0.00,,,0.00,0,Wunderground v.1.15,2013-07-04 06:10:00,
2013-07-04 01:15:00,66.1,60.8,30.02,ESE,112,2.0,3.0,83,0.00,,,0.00,0,Wunderground v.1.15,2013-07-04 06:15:00,
2013-07-04 01:20:00,66.0,60.7,30.02,ESE,112,2.0,2.0,83,0.00,,,0.00,0,Wunderground v.1.15,2013-07-04 06:20:00,
2013-07-04 01:25:00,65.8,60.8,30.02,ESE,112,2.0,3.0,84,0.00,,,0.00,0,Wunderground v.1.15,2013-07-04 06:25:00,
2013-07-04 01:35:00,65.5,60.9,30.02,ESE,112,3.0,4.0,85,0.00,,,0.00,0,Wunderground v.1.15,2013-07-04 06:35:00,
2013-07-04 01:40:00,65.4,61.1,30.02,ESE,112,3.0,3.0,86,0.00,,,0.00,0,Wunderground v.1.15,2013-07-04 06:40:00,
2013-07-04 01:45:00,65.4,61.1,30.02,ESE,112,3.0,3.0,86,0.00,,,0.00,0,Wunderground v.1.15,2013-07-04 06:45:00,
2013-07-04 01:50:00,65.3,61.0,30.02,ESE,112,3.0,4.0,86,0.00,,,0.00,0,Wunderground v.1.15,2013-07-04 06:50:00,
2013-07-04 01:55:00,65.5,61.2,30.02,ESE,112,4.0,4.0,86,0.00,,,0.00,0,Wunderground v.1.15,2013-07-04 06:55:00,
2013-07-04 02:05:00,65.6,61.3,30.02,ESE,117,4.0,4.0,86,0.00,,,0.00,0,Wunderground v.1.15,2013-07-04 07:05:00,
2013-07-04 02:10:00,65.7,61.4,30.02,SE,133,4.0,7.0,86,0.00,,,0.00,0,Wunderground v.1.15,2013-07-04 07:10:00,
2013-07-04 02:15:00,65.8,61.5,30.02,SSE,147,5.0,7.0,86,0.00,,,0.00,0,Wunderground v.1.15,2013-07-04 07:15:00,
2013-07-04 02:20:00,66.0,61.4,30.01,SSE,163,5.0,5.0,85,0.00,,,0.00,0,Wunderground v.1.15,2013-07-04 07:20:00,
2013-07-04 02:25:00,66.3,61.7,30.02,SSE,164,5.0,5.0,85,0.00,,,0.00,0,Wunderground v.1.15,2013-07-04 07:25:00,
2013-07-04 02:30:00,66.5,61.5,30.01,SSE,165,5.0,6.0,84,0.00,,,0.00,0,Wunderground v.1.15,2013-07-04 07:30:00,
2013-07-04 02:40:00,66.8,61.8,30.01,SSE,164,5.0,5.0,84,0.00,,,0.00,0,Wunderground v.1.15,2013-07-04 07:40:00,
2013-07-04 02:45:00,66.7,61.7,30.01,SSE,164,4.0,5.0,84,0.00,,,0.00,0,Wunderground v.1.15,2013-07-04 07:45:00,
2013-07-04 02:50:00,66.6,61.6,30.01,SSE,162,4.0,4.0,84,0.00,,,0.00,0,Wunderground v.1.15,2013-07-04 07:50:00,
2013-07-04 02:55:00,66.5,61.8,30.01,SSE,162,4.0,5.0,85,0.00,,,0.00,0,Wunderground v.1.15,2013-07-04 07:55:00,
2013-07-04 03:00:00,66.2,61.6,30.01,SSE,162,4.0,4.0,85,0.00,,,0.00,0,Wunderground v.1.15,2013-07-04 08:00:00,
2013-07-04 03:05:00,66.0,61.4,30.01,SSE,162,3.0,4.0,85,0.00,,,0.00,0,Wunderground v.1.15,2013-07-04 08:05:00,
2013-07-04 03:10:00,65.8,61.5,30.01,SSE,162,3.0,3.0,86,0.00,,,0.00,0,Wunderground v.1.15,2013-07-04 08:10:00,
2013-07-04 03:15:00,65.5,61.2,30.02,SSE,162,3.0,3.0,86,0.00,,,0.00,0,Wunderground v.1.15,2013-07-04 08:15:00,
2013-07-04 03:20:00,65.3,61.3,30.02,SSE,162,4.0,4.0,87,0.00,,,0.00,0,Wunderground v.1.15,2013-07-04 08:20:00,
2013-07-04 03:25:00,65.3,61.3,30.01,SSE,162,4.0,4.0,87,0.00,,,0.00,0,Wunderground v.1.15,2013-07-04 08:25:00,
2013-07-04 03:30:00,65.2,61.6,30.01,SSE,162,3.0,3.0,88,0.00,,,0.00,0,Wunderground v.1.15,2013-07-04 08:30:00,
2013-07-04 03:35:00,65.0,61.4,30.02,SSE,162,3.0,3.0,88,0.00,,,0.00,0,Wunderground v.1.15,2013-07-04 08:35:00,
2013-07-04 03:45:00,64.8,61.2,30.02,SSE,162,3.0,3.0,88,0.00,,,0.00,0,Wunderground v.1.15,2013-07-04 08:45:00,
2013-07-04 03:50:00,64.7,61.4,30.02,SSE,162,3.0,5.0,89,0.00,,,0.00,0,Wunderground v.1.15,2013-07-04 08:50:00,
2013-07-04 03:55:00,64.6,61.3,30.01,SSE,162,3.0,5.0,89,0.00,,,0.00,0,Wunderground v.1.15,2013-07-04 08:55:00,
2013-07-04 04:00:00,64.6,61.3,30.02,SSE,162,3.0,5.0,89,0.00,,,0.00,0,Wunderground v.1.15,2013-07-04 09:00:00,
2013-07-04 04:09:00,64.7,61.4,30.02,SSE,162,2.0,2.0,89,0.00,,,0.00,0,Wunderground v.1.15,2013-07-04 09:09:00,
2013-07-04 04:15:00,64.7,61.4,30.02,SSE,162,1.0,3.0,89,0.00,,,0.00,0,Wunderground v.1.15,2013-07-04 09:15:00,
2013-07-04 04:20:00,64.6,61.3,30.02,SSE,162,1.0,1.0,89,0.00,,,0.00,0,Wunderground v.1.15,2013-07-04 09:20:00,
2013-07-04 04:25:00,64.6,61.3,30.02,SSE,162,0.0,1.0,89,0.00,,,0.00,0,Wunderground v.1.15,2013-07-04 09:25:00,
2013-07-04 04:30:00,64.5,61.2,30.02,SSE,162,0.0,0.0,89,0.00,,,0.00,0,Wunderground v.1.15,2013-07-04 09:30:00,
2013-07-04 04:35:00,64.4,61.1,30.02,SSE,162,0.0,0.0,89,0.00,,,0.00,0,Wunderground v.1.15,2013-07-04 09:35:00,
2013-07-04 04:40:00,64.3,60.7,30.02,SSE,162,0.0,0.0,88,0.00,,,0.00,0,Wunderground v.1.15,2013-07-04 09:40:00,
2013-07-04 04:50:00,64.0,60.7,30.03,SSE,162,0.0,0.0,89,0.00,,,0.00,0,Wunderground v.1.15,2013-07-04 09:50:00,
2013-07-04 04:55:00,63.9,60.6,30.02,SSE,162,0.0,0.0,89,0.00,,,0.00,0,Wunderground v.1.15,2013-07-04 09:55:00,
2013-07-04 05:00:00,63.8,60.5,30.02,SSE,162,0.0,0.0,89,0.00,,,0.00,0,Wunderground v.1.15,2013-07-04 10:00:00,
2013-07-04 05:10:00,63.5,60.5,30.02,SSE,162,0.0,0.0,90,0.00,,,0.00,0,Wunderground v.1.15,2013-07-04 10:10:00,
2013-07-04 05:15:00,63.4,60.4,30.02,SSE,162,0.0,0.0,90,0.00,,,0.00,0,Wunderground v.1.15,2013-07-04 10:15:00,
2013-07-04 05:20:00,63.2,60.2,30.02,SSE,162,0.0,0.0,90,0.00,,,0.00,0,Wunderground v.1.15,2013-07-04 10:20:00,
2013-07-04 05:25:00,62.9,59.6,30.03,SSE,162,0.0,0.0,89,0.00,,,0.00,0,Wunderground v.1.15,2013-07-04 10:25:00,
2013-07-04 05:30:00,62.3,59.0,30.03,SSE,162,1.0,2.0,89,0.00,,,0.00,0,Wunderground v.1.15,2013-07-04 10:30:00,
2013-07-04 05:35:00,61.8,58.8,30.03,SSE,162,2.0,2.0,90,0.00,,,0.00,0,Wunderground v.1.15,2013-07-04 10:35:00,
2013-07-04 05:40:00,61.4,58.7,30.03,SSE,162,1.0,1.0,91,0.00,,,0.00,5,Wunderground v.1.15,2013-07-04 10:40:00,
2013-07-04 05:45:00,61.1,58.8,30.03,SSE,162,0.0,1.0,92,0.00,,,0.00,9,Wunderground v.1.15,2013-07-04 10:45:00,
2013-07-04 05:55:00,60.8,58.8,30.03,SSE,162,0.0,0.0,93,0.00,,,0.00,16,Wunderground v.1.15,2013-07-04 10:55:00,
2013-07-04 06:00:00,60.9,58.9,30.03,SSE,162,0.0,0.0,93,0.00,,,0.00,21,Wunderground v.1.15,2013-07-04 11:00:00,
2013-07-04 06:10:00,61.1,59.4,30.03,SSE,162,0.0,0.0,94,0.00,,,0.00,33,Wunderground v.1.15,2013-07-04 11:10:00,
2013-07-04 06:15:00,61.1,59.4,30.03,SSE,162,0.0,0.0,94,0.00,,,0.00,42,Wunderground v.1.15,2013-07-04 11:15:00,
2013-07-04 06:20:00,61.2,59.5,30.03,SSE,162,1.0,3.0,94,0.00,,,0.00,51,Wunderground v.1.15,2013-07-04 11:20:00,
2013-07-04 06:30:00,61.6,59.9,30.03,SSE,162,2.0,2.0,94,0.00,,,0.00,72,Wunderground v.1.15,2013-07-04 11:30:00,
2013-07-04 06:35:00,62.0,60.3,30.03,SSE,162,2.0,2.0,94,0.00,,,0.00,84,Wunderground v.1.15,2013-07-04 11:35:00,
2013-07-04 06:40:00,62.3,60.8,30.03,SSE,162,1.0,2.0,95,0.00,,,0.00,97,Wunderground v.1.15,2013-07-04 11:40:00,
2013-07-04 06:45:00,62.7,61.2,30.03,SSE,162,1.0,2.0,95,0.00,,,0.00,109,Wunderground v.1.15,2013-07-04 11:45:00,
2013-07-04 06:50:00,63.1,61.6,30.04,SSE,162,0.0,0.0,95,0.00,,,0.00,125,Wunderground v.1.15,2013-07-04 11:50:00,
2013-07-04 06:55:00,63.6,62.1,30.04,SSE,162,0.0,0.0,95,0.00,,,0.00,141,Wunderground v.1.15,2013-07-04 11:55:00,
2013-07-04 07:00:00,64.1,62.6,30.04,SSE,162,0.0,0.0,95,0.00,,,0.00,155,Wunderground v.1.15,2013-07-04 12:00:00,
2013-07-04 07:10:00,65.0,63.2,30.04,SSE,162,2.0,2.0,94,0.00,,,0.00,183,Wunderground v.1.15,2013-07-04 12:10:00,
2013-07-04 07:15:00,65.4,63.3,30.04,SSE,162,3.0,3.0,93,0.00,,,0.00,197,Wunderground v.1.15,2013-07-04 12:15:00,
2013-07-04 07:20:00,65.8,63.4,30.04,SSE,162,4.0,4.0,92,0.00,,,0.00,213,Wunderground v.1.15,2013-07-04 12:20:00,
2013-07-04 07:25:00,66.1,63.4,30.05,SSE,162,4.0,4.0,91,0.00,,,0.00,230,Wunderground v.1.15,2013-07-04 12:25:00,
2013-07-04 07:35:00,67.0,63.6,30.06,SSE,162,3.0,5.0,89,0.00,,,0.00,264,Wunderground v.1.15,2013-07-04 12:35:00,
2013-07-04 07:40:00,67.4,63.7,30.06,SSE,167,4.0,4.0,88,0.00,,,0.00,279,Wunderground v.1.15,2013-07-04 12:40:00,
2013-07-04 07:45:00,67.8,63.8,30.06,South,171,5.0,5.0,87,0.00,,,0.00,294,Wunderground v.1.15,2013-07-04 12:45:00,
2013-07-04 07:50:00,68.2,64.2,30.06,South,171,5.0,5.0,87,0.00,,,0.00,306,Wunderground v.1.15,2013-07-04 12:50:00,
2013-07-04 07:55:00,68.5,63.8,30.06,South,171,5.0,5.0,85,0.00,,,0.00,322,Wunderground v.1.15,2013-07-04 12:55:00,
2013-07-04 08:05:00,69.2,64.5,30.06,South,173,4.0,5.0,85,0.00,,,0.00,357,Wunderground v.1.15,2013-07-04 13:05:00,
2013-07-04 08:10:00,69.5,64.5,30.06,South,173,4.0,4.0,84,0.00,,,0.00,374,Wunderground v.1.15,2013-07-04 13:10:00,
2013-07-04 08:15:00,69.8,64.7,30.06,South,173,4.0,4.0,84,0.00,,,0.00,388,Wunderground v.1.15,2013-07-04 13:15:00,
2013-07-04 08:20:00,70.1,64.7,30.05,South,173,4.0,6.0,83,0.00,,,0.00,406,Wunderground v.1.15,2013-07-04 13:20:00,
2013-07-04 08:25:00,70.3,64.9,30.05,South,173,5.0,6.0,83,0.00,,,0.00,424,Wunderground v.1.15,2013-07-04 13:25:00,
2013-07-04 08:30:00,70.5,65.1,30.05,South,173,4.0,4.0,83,0.00,,,0.00,438,Wunderground v.1.15,2013-07-04 13:30:00,
2013-07-04 08:40:00,71.1,64.6,30.06,South,191,4.0,4.0,80,0.00,,,0.00,469,Wunderground v.1.15,2013-07-04 13:40:00,
2013-07-04 08:45:00,71.4,64.9,30.06,SW,214,5.0,6.0,80,0.00,,,0.00,483,Wunderground v.1.15,2013-07-04 13:45:00,
2013-07-04 08:50:00,71.6,65.1,30.06,SW,217,6.0,7.0,80,0.00,,,0.00,499,Wunderground v.1.15,2013-07-04 13:50:00,
2013-07-04 08:55:00,71.9,65.4,30.06,SW,219,5.0,7.0,80,0.00,,,0.00,513,Wunderground v.1.15,2013-07-04 13:55:00,
2013-07-04 09:00:00,72.1,65.2,30.06,SW,229,5.0,5.0,79,0.00,,,0.00,527,Wunderground v.1.15,2013-07-04 14:00:00,
2013-07-04 09:05:00,72.3,65.4,30.06,SW,231,5.0,6.0,79,0.00,,,0.00,543,Wunderground v.1.15,2013-07-04 14:05:00,
2013-07-04 09:10:00,72.4,64.8,30.06,WSW,237,5.0,5.0,77,0.00,,,0.00,559,Wunderground v.1.15,2013-07-04 14:10:00,
2013-07-04 09:15:00,72.6,65.0,30.06,WSW,246,5.0,6.0,77,0.00,,,0.00,573,Wunderground v.1.15,2013-07-04 14:15:00,
2013-07-04 09:20:00,72.9,65.3,30.06,WSW,248,5.0,5.0,77,0.00,,,0.00,589,Wunderground v.1.15,2013-07-04 14:20:00,
2013-07-04 09:25:00,73.1,65.1,30.05,WSW,254,6.0,6.0,76,0.00,,,0.00,603,Wunderground v.1.15,2013-07-04 14:25:00,
2013-07-04 09:30:00,73.4,65.4,30.06,WSW,254,5.0,5.0,76,0.00,,,0.00,615,Wunderground v.1.15,2013-07-04 14:30:00,
2013-07-04 09:35:00,73.7,65.7,30.05,WSW,254,4.0,5.0,76,0.00,,,0.00,631,Wunderground v.1.15,2013-07-04 14:35:00,
2013-07-04 09:45:00,74.3,65.5,30.05,West,262,5.0,5.0,74,0.00,,,0.00,659,Wunderground v.1.15,2013-07-04 14:45:00,
2013-07-04 09:50:00,74.4,65.2,30.05,West,263,5.0,5.0,73,0.00,,,0.00,670,Wunderground v.1.15,2013-07-04 14:50:00,
2013-07-04 09:55:00,74.6,65.0,30.05,West,271,4.0,5.0,72,0.00,,,0.00,684,Wunderground v.1.15,2013-07-04 14:55:00,
2013-07-04 10:00:00,74.7,64.7,30.05,West,272,4.0,4.0,71,0.00,,,0.00,696,Wunderground v.1.15,2013-07-04 15:00:00,
2013-07-04 10:05:00,74.8,66.0,30.05,West,272,4.0,4.0,74,0.00,,,0.00,707,Wunderground v.1.15,2013-07-04 15:05:00,
2013-07-04 10:15:00,75.4,65.3,30.05,West,272,4.0,7.0,71,0.00,,,0.00,735,Wunderground v.1.15,2013-07-04 15:15:00,
2013-07-04 10:20:00,75.6,64.7,30.05,West,281,4.0,4.0,69,0.00,,,0.00,749,Wunderground v.1.15,2013-07-04 15:20:00,
2013-07-04 10:25:00,75.8,64.9,30.05,West,281,5.0,5.0,69,0.00,,,0.00,756,Wunderground v.1.15,2013-07-04 15:25:00,
2013-07-04 10:30:00,76.0,65.1,30.05,West,281,4.0,4.0,69,0.00,,,0.00,770,Wunderground v.1.15,2013-07-04 15:30:00,
2013-07-04 10:35:00,76.2,65.7,30.05,West,281,3.0,4.0,70,0.00,,,0.00,780,Wunderground v.1.15,2013-07-04 15:35:00,
2013-07-04 10:40:00,76.7,65.8,30.05,West,281,2.0,4.0,69,0.00,,,0.00,789,Wunderground v.1.15,2013-07-04 15:40:00,
2013-07-04 10:45:00,77.0,66.0,30.05,West,281,3.0,4.0,69,0.00,,,0.00,800,Wunderground v.1.15,2013-07-04 15:45:00,
2013-07-04 10:50:00,77.2,65.0,30.05,West,281,2.0,2.0,66,0.00,,,0.00,812,Wunderground v.1.15,2013-07-04 15:50:00,
2013-07-04 10:55:00,77.8,65.5,30.05,West,281,1.0,2.0,66,0.00,,,0.00,823,Wunderground v.1.15,2013-07-04 15:55:00,
2013-07-04 11:00:00,78.4,65.7,30.05,West,281,1.0,1.0,65,0.00,,,0.00,835,Wunderground v.1.15,2013-07-04 16:00:00,
2013-07-04 11:10:00,79.4,66.6,30.05,West,278,2.0,2.0,65,0.00,,,0.00,856,Wunderground v.1.15,2013-07-04 16:10:00,
2013-07-04 11:15:00,79.6,64.0,30.05,SW,234,2.0,2.0,59,0.00,,,0.00,863,Wunderground v.1.15,2013-07-04 16:15:00,
2013-07-04 11:25:00,80.0,64.9,30.05,SW,226,2.0,2.0,60,0.00,,,0.00,879,Wunderground v.1.15,2013-07-04 16:25:00,
2013-07-04 11:30:00,80.1,65.4,30.05,SW,226,2.0,4.0,61,0.00,,,0.00,884,Wunderground v.1.15,2013-07-04 16:30:00,
2013-07-04 11:35:00,80.0,64.4,30.05,SW,226,2.0,4.0,59,0.00,,,0.00,891,Wunderground v.1.15,2013-07-04 16:35:00,
2013-07-04 11:40:00,80.3,66.1,30.05,SW,226,2.0,2.0,62,0.00,,,0.00,895,Wunderground v.1.15,2013-07-04 16:40:00,
2013-07-04 11:45:00,80.7,66.0,30.05,SSW,207,2.0,3.0,61,0.00,,,0.00,905,Wunderground v.1.15,2013-07-04 16:45:00,
2013-07-04 11:50:00,80.9,65.2,30.04,SSW,206,3.0,3.0,59,0.00,,,0.00,909,Wunderground v.1.15,2013-07-04 16:50:00,
2013-07-04 11:55:00,81.1,64.4,30.04,SSW,206,3.0,3.0,57,0.00,,,0.00,918,Wunderground v.1.15,2013-07-04 16:55:00,
2013-07-04 12:00:00,81.3,63.6,30.05,SSW,206,3.0,3.0,55,0.00,,,0.00,926,Wunderground v.1.15,2013-07-04 17:00:00,
2013-07-04 12:10:00,81.8,65.1,30.04,SSW,204,2.0,2.0,57,0.00,,,0.00,932,Wunderground v.1.15,2013-07-04 17:10:00,
2013-07-04 12:15:00,81.9,64.1,30.04,SSW,203,2.0,2.0,55,0.00,,,0.00,940,Wunderground v.1.15,2013-07-04 17:15:00,
2013-07-04 12:20:00,82.1,63.8,30.04,South,191,3.0,3.0,54,0.00,,,0.00,944,Wunderground v.1.15,2013-07-04 17:20:00,
2013-07-04 12:30:00,82.4,62.5,30.03,South,179,4.0,6.0,51,0.00,,,0.00,953,Wunderground v.1.15,2013-07-04 17:30:00,
2013-07-04 12:35:00,82.6,65.3,30.03,South,179,3.0,6.0,56,0.00,,,0.00,977,Wunderground v.1.15,2013-07-04 17:35:00,
2013-07-04 12:40:00,82.5,63.1,30.03,South,174,2.0,4.0,52,0.00,,,0.00,211,Wunderground v.1.15,2013-07-04 17:40:00,
2013-07-04 12:45:00,82.6,64.8,30.04,South,174,3.0,4.0,55,0.00,,,0.00,969,Wunderground v.1.15,2013-07-04 17:45:00,
2013-07-04 12:50:00,82.7,64.4,30.04,South,174,2.0,2.0,54,0.00,,,0.00,960,Wunderground v.1.15,2013-07-04 17:50:00,
2013-07-04 12:55:00,82.9,62.9,30.03,SSE,153,4.0,7.0,51,0.00,,,0.00,983,Wunderground v.1.15,2013-07-04 17:55:00,
2013-07-04 13:05:00,83.4,65.0,30.03,SSE,153,2.0,4.0,54,0.00,,,0.00,977,Wunderground v.1.15,2013-07-04 18:05:00,
2013-07-04 13:10:00,83.5,65.1,30.03,SSE,157,1.0,6.0,54,0.00,,,0.00,984,Wunderground v.1.15,2013-07-04 18:10:00,
2013-07-04 13:15:00,83.7,63.1,30.03,SSE,161,3.0,6.0,50,0.00,,,0.00,1002,Wunderground v.1.15,2013-07-04 18:15:00,
2013-07-04 13:20:00,83.9,63.3,30.03,South,169,4.0,4.0,50,0.00,,,0.00,1005,Wunderground v.1.15,2013-07-04 18:20:00,
2013-07-04 13:25:00,84.0,63.9,30.03,South,169,4.0,4.0,51,0.00,,,0.00,1013,Wunderground v.1.15,2013-07-04 18:25:00,
2013-07-04 13:35:00,84.2,64.1,30.03,WSW,245,5.0,5.0,51,0.00,,,0.00,1021,Wunderground v.1.15,2013-07-04 18:35:00,
2013-07-04 13:40:00,84.0,62.8,30.03,WSW,238,4.0,4.0,49,0.00,,,0.00,1058,Wunderground v.1.15,2013-07-04 18:40:00,
2013-07-04 13:45:00,83.8,63.2,30.02,SSE,163,4.0,6.0,50,0.00,,,0.00,1030,Wunderground v.1.15,2013-07-04 18:45:00,
2013-07-04 13:50:00,83.9,60.9,30.02,SSW,192,5.0,5.0,46,0.00,,,0.00,1041,Wunderground v.1.15,2013-07-04 18:50:00,
2013-07-04 13:55:00,83.8,62.0,30.02,South,189,4.0,5.0,48,0.00,,,0.00,230,Wunderground v.1.15,2013-07-04 18:55:00,
2013-07-04 14:05:00,83.7,62.5,30.02,SSE,165,3.0,6.0,49,0.00,,,0.00,1037,Wunderground v.1.15,2013-07-04 19:05:00,
2013-07-04 14:10:00,83.9,63.8,30.02,SSE,165,4.0,5.0,51,0.00,,,0.00,1023,Wunderground v.1.15,2013-07-04 19:10:00,
2013-07-04 14:15:00,84.1,62.3,30.02,SSE,157,5.0,10.0,48,0.00,,,0.00,1002,Wunderground v.1.15,2013-07-04 19:15:00,
2013-07-04 14:20:00,84.2,62.4,30.02,SE,146,6.0,6.0,48,0.00,,,0.00,1014,Wunderground v.1.15,2013-07-04 19:20:00,
2013-07-04 14:25:00,84.6,60.9,30.02,SE,146,4.0,6.0,45,0.00,,,0.00,1035,Wunderground v.1.15,2013-07-04 19:25:00,
2013-07-04 14:30:00,84.8,62.3,30.02,SSE,152,3.0,3.0,47,0.00,,,0.00,262,Wunderground v.1.15,2013-07-04 19:30:00,
2013-07-04 14:40:00,84.7,63.4,30.02,SSE,149,5.0,9.0,49,0.00,,,0.00,1007,Wunderground v.1.15,2013-07-04 19:40:00,
2013-07-04 14:45:00,84.7,62.2,30.02,SSE,158,6.0,9.0,47,0.00,,,0.00,965,Wunderground v.1.15,2013-07-04 19:45:00,
2013-07-04 14:50:00,84.8,62.3,30.02,SSE,157,6.0,6.0,47,0.00,,,0.00,970,Wunderground v.1.15,2013-07-04 19:50:00,
2013-07-04 14:55:00,84.4,63.2,30.01,SE,135,5.0,6.0,49,0.00,,,0.00,940,Wunderground v.1.15,2013-07-04 19:55:00,
2013-07-04 15:00:00,84.3,61.9,30.01,South,186,4.0,5.0,47,0.00,,,0.00,960,Wunderground v.1.15,2013-07-04 20:00:00,
2013-07-04 15:05:00,84.6,64.5,30.01,SE,135,4.0,10.0,51,0.00,,,0.00,1002,Wunderground v.1.15,2013-07-04 20:05:00,
2013-07-04 15:10:00,84.4,65.4,30.01,SE,143,8.0,8.0,53,0.00,,,0.00,956,Wunderground v.1.15,2013-07-04 20:10:00,
2013-07-04 15:15:00,84.0,64.5,30.01,SE,132,10.0,10.0,52,0.00,,,0.00,195,Wunderground v.1.15,2013-07-04 20:15:00,
2013-07-04 15:20:00,83.3,64.4,30.01,SE,132,8.0,8.0,53,0.00,,,0.00,211,Wunderground v.1.15,2013-07-04 20:20:00,
2013-07-04 15:25:00,83.0,61.9,30.01,SSE,147,6.0,8.0,49,0.00,,,0.00,156,Wunderground v.1.15,2013-07-04 20:25:00,
2013-07-04 15:30:00,82.8,62.3,30.01,SSE,152,4.0,5.0,50,0.00,,,0.00,236,Wunderground v.1.15,2013-07-04 20:30:00,
2013-07-04 15:35:00,82.8,65.5,30.00,SE,139,4.0,8.0,56,0.00,,,0.00,814,Wunderground v.1.15,2013-07-04 20:35:00,
2013-07-04 15:45:00,82.9,62.9,30.00,SE,126,6.0,9.0,51,0.00,,,0.00,156,Wunderground v.1.15,2013-07-04 20:45:00,
2013-07-04 15:50:00,82.7,62.2,30.00,SE,124,5.0,5.0,50,0.00,,,0.00,174,Wunderground v.1.15,2013-07-04 20:50:00,
2013-07-04 15:55:00,82.6,61.5,30.00,SSE,159,4.0,5.0,49,0.00,,,0.00,193,Wunderground v.1.15,2013-07-04 20:55:00,
2013-07-04 16:00:00,82.6,62.1,30.00,SSE,158,4.0,4.0,50,0.00,,,0.00,248,Wunderground v.1.15,2013-07-04 21:00:00,
2013-07-04 16:05:00,82.5,61.4,30.00,SSE,150,4.0,5.0,49,0.00,,,0.00,355,Wunderground v.1.15,2013-07-04 21:05:00,
2013-07-04 16:15:00,83.2,61.5,30.00,SSE,155,4.0,4.0,48,0.00,,,0.00,795,Wunderground v.1.15,2013-07-04 21:15:00,
2013-07-04 16:20:00,83.6,61.8,30.00,SSE,149,3.0,6.0,48,0.00,,,0.00,214,Wunderground v.1.15,2013-07-04 21:20:00,
2013-07-04 16:25:00,83.5,63.5,30.00,SE,136,4.0,6.0,51,0.00,,,0.00,738,Wunderground v.1.15,2013-07-04 21:25:00,
2013-07-04 16:30:00,83.7,61.9,30.00,SE,139,4.0,4.0,48,0.00,,,0.00,758,Wunderground v.1.15,2013-07-04 21:30:00,
2013-07-04 16:35:00,84.0,63.9,29.99,SE,140,3.0,5.0,51,0.00,,,0.00,216,Wunderground v.1.15,2013-07-04 21:35:00,
2013-07-04 16:40:00,84.1,61.7,29.99,South,189,4.0,5.0,47,0.00,,,0.00,686,Wunderground v.1.15,2013-07-04 21:40:00,
2013-07-04 16:50:00,84.3,61.9,29.99,SE,146,4.0,4.0,47,0.00,,,0.00,188,Wunderground v.1.15,2013-07-04 21:50:00,
2013-07-04 16:55:00,84.3,63.1,29.99,SE,146,3.0,4.0,49,0.00,,,0.00,610,Wunderground v.1.15,2013-07-04 21:55:00,
2013-07-04 17:00:00,84.5,63.2,29.99,SSE,148,3.0,4.0,49,0.00,,,0.00,584,Wunderground v.1.15,2013-07-04 22:00:00,
2013-07-04 17:09:00,84.8,62.3,29.98,South,190,5.0,5.0,47,0.00,,,0.00,552,Wunderground v.1.15,2013-07-04 22:09:00,
2013-07-04 17:14:00,84.9,61.2,29.98,South,179,4.0,7.0,45,0.00,,,0.00,533,Wunderground v.1.15,2013-07-04 22:14:00,
2013-07-04 17:20:00,84.9,62.4,29.98,South,182,5.0,6.0,47,0.00,,,0.00,512,Wunderground v.1.15,2013-07-04 22:20:00,
2013-07-04 17:25:00,84.8,61.1,29.98,South,184,5.0,6.0,45,0.00,,,0.00,496,Wunderground v.1.15,2013-07-04 22:25:00,
2013-07-04 17:30:00,84.8,62.3,29.98,South,182,5.0,6.0,47,0.00,,,0.00,485,Wunderground v.1.15,2013-07-04 22:30:00,
2013-07-04 17:35:00,84.7,62.2,29.98,South,182,4.0,6.0,47,0.00,,,0.00,469,Wunderground v.1.15,2013-07-04 22:35:00,
2013-07-04 17:40:00,84.8,63.5,29.98,South,182,3.0,3.0,49,0.00,,,0.00,457,Wunderground v.1.15,2013-07-04 22:40:00,
2013-07-04 17:45:00,84.9,62.4,29.98,South,182,2.0,3.0,47,0.00,,,0.00,448,Wunderground v.1.15,2013-07-04 22:45:00,
2013-07-04 17:55:00,84.7,62.2,29.98,South,170,4.0,7.0,47,0.00,,,0.00,341,Wunderground v.1.15,2013-07-04 22:55:00,
2013-07-04 18:00:00,84.6,62.1,29.98,South,173,4.0,5.0,47,0.00,,,0.00,396,Wunderground v.1.15,2013-07-04 23:00:00,
2013-07-04 18:05:00,84.4,62.6,29.98,South,169,4.0,5.0,48,0.00,,,0.00,383,Wunderground v.1.15,2013-07-04 23:05:00,
2013-07-04 18:10:00,84.3,62.5,29.98,SSE,167,4.0,4.0,48,0.00,,,0.00,362,Wunderground v.1.15,2013-07-04 23:10:00,
2013-07-04 18:15:00,84.2,62.4,29.98,SSE,167,4.0,4.0,48,0.00,,,0.00,360,Wunderground v.1.15,2013-07-04 23:15:00,
2013-07-04 18:25:00,84.2,63.0,29.98,South,184,4.0,6.0,49,0.00,,,0.00,381,Wunderground v.1.15,2013-07-04 23:25:00,
2013-07-04 18:30:00,84.2,62.4,29.98,SSE,165,5.0,5.0,48,0.00,,,0.00,399,Wunderground v.1.15,2013-07-04 23:30:00,
2013-07-04 18:35:00,84.2,62.4,29.98,South,169,4.0,5.0,48,0.00,,,0.00,348,Wunderground v.1.15,2013-07-04 23:35:00,
2013-07-04 18:40:00,84.2,63.0,29.98,South,169,3.0,3.0,49,0.00,,,0.00,213,Wunderground v.1.15,2013-07-04 23:40:00,
2013-07-04 18:45:00,84.0,63.4,29.98,SSE,167,4.0,5.0,50,0.00,,,0.00,230,Wunderground v.1.15,2013-07-04 23:45:00,
2013-07-04 18:50:00,83.6,62.4,29.98,SSE,167,4.0,4.0,49,0.00,,,0.00,148,Wunderground v.1.15,2013-07-04 23:50:00,
2013-07-04 19:00:00,82.8,64.5,29.98,SSE,167,3.0,3.0,54,0.00,,,0.00,104,Wunderground v.1.15,2013-07-05 00:00:00,
2013-07-04 19:10:00,82.2,63.4,29.98,SSE,167,3.0,4.0,53,0.00,,,0.00,176,Wunderground v.1.15,2013-07-05 00:10:00,
2013-07-04 19:15:00,82.0,63.7,29.98,SSE,167,4.0,4.0,54,0.00,,,0.00,163,Wunderground v.1.15,2013-07-05 00:15:00,
2013-07-04 19:20:00,81.9,64.7,29.98,SSE,167,3.0,3.0,56,0.00,,,0.00,153,Wunderground v.1.15,2013-07-05 00:20:00,
2013-07-04 19:25:00,81.8,65.6,29.98,SSE,167,3.0,3.0,58,0.00,,,0.00,172,Wunderground v.1.15,2013-07-05 00:25:00,
2013-07-04 19:30:00,81.6,65.9,29.98,SSE,167,4.0,4.0,59,0.00,,,0.00,169,Wunderground v.1.15,2013-07-05 00:30:00,
2013-07-04 19:35:00,81.3,66.1,29.98,SSE,151,4.0,4.0,60,0.00,,,0.00,109,Wunderground v.1.15,2013-07-05 00:35:00,
2013-07-04 19:40:00,80.9,65.7,29.98,SE,137,6.0,9.0,60,0.00,,,0.00,104,Wunderground v.1.15,2013-07-05 00:40:00,
2013-07-04 19:45:00,80.2,65.1,29.98,SE,140,8.0,10.0,60,0.00,,,0.00,90,Wunderground v.1.15,2013-07-05 00:45:00,
2013-07-04 19:50:00,79.7,65.5,29.98,SE,139,8.0,10.0,62,0.00,,,0.00,86,Wunderground v.1.15,2013-07-05 00:50:00,
2013-07-04 19:55:00,79.2,64.6,29.98,SE,139,8.0,10.0,61,0.00,,,0.00,83,Wunderground v.1.15,2013-07-05 00:55:00,
2013-07-04 20:05:00,78.4,64.8,29.98,SE,141,7.0,9.0,63,0.00,,,0.00,56,Wunderground v.1.15,2013-07-05 01:05:00,
2013-07-04 20:10:00,78.1,63.6,29.98,SE,146,7.0,11.0,61,0.00,,,0.00,35,Wunderground v.1.15,2013-07-05 01:10:00,
2013-07-04 20:15:00,77.7,63.6,29.98,SE,145,7.0,11.0,62,0.00,,,0.00,25,Wunderground v.1.15,2013-07-05 01:15:00,
2013-07-04 20:20:00,77.2,63.2,29.99,SE,145,6.0,6.0,62,0.00,,,0.00,19,Wunderground v.1.15,2013-07-05 01:20:00,
2013-07-04 20:25:00,76.9,63.3,29.99,SE,145,5.0,6.0,63,0.00,,,0.00,14,Wunderground v.1.15,2013-07-05 01:25:00,
2013-07-04 20:30:00,76.5,63.0,29.98,SE,145,5.0,5.0,63,0.00,,,0.00,11,Wunderground v.1.15,2013-07-05 01:30:00,
2013-07-04 20:40:00,75.9,63.3,29.98,SE,144,4.0,4.0,65,0.00,,,0.00,0,Wunderground v.1.15,2013-07-05 01:40:00,
2013-07-04 20:45:00,75.7,63.5,29.98,SE,144,3.0,4.0,66,0.00,,,0.00,0,Wunderground v.1.15,2013-07-05 01:45:00,
2013-07-04 20:50:00,75.4,63.2,29.98,SE,144,3.0,3.0,66,0.00,,,0.00,0,Wunderground v.1.15,2013-07-05 01:50:00,
2013-07-04 20:55:00,75.2,63.9,29.98,SE,144,3.0,3.0,68,0.00,,,0.00,0,Wunderground v.1.15,2013-07-05 01:55:00,
2013-07-04 21:00:00,75.0,64.1,29.98,SE,144,3.0,3.0,69,0.00,,,0.00,0,Wunderground v.1.15,2013-07-05 02:00:00,
2013-07-04 21:05:00,74.8,63.9,29.99,SE,144,3.0,3.0,69,0.00,,,0.00,0,Wunderground v.1.15,2013-07-05 02:05:00,
2013-07-04 21:10:00,74.6,64.2,29.99,SE,144,3.0,3.0,70,0.00,,,0.00,0,Wunderground v.1.15,2013-07-05 02:10:00,
2013-07-04 21:15:00,74.3,63.9,29.99,SE,144,3.0,3.0,70,0.00,,,0.00,0,Wunderground v.1.15,2013-07-05 02:15:00,
2013-07-04 21:20:00,74.1,64.1,29.99,SE,144,3.0,3.0,71,0.00,,,0.00,0,Wunderground v.1.15,2013-07-05 02:20:00,
2013-07-04 21:25:00,73.7,63.7,29.99,SE,144,4.0,4.0,71,0.00,,,0.00,0,Wunderground v.1.15,2013-07-05 02:25:00,
2013-07-04 21:30:00,73.5,63.5,29.99,SE,140,5.0,7.0,71,0.00,,,0.00,0,Wunderground v.1.15,2013-07-05 02:30:00,
2013-07-04 21:35:00,73.5,63.5,29.99,SE,140,5.0,7.0,71,0.00,,,0.00,0,Wunderground v.1.15,2013-07-05 02:35:00,
2013-07-04 21:45:00,73.2,63.6,30.00,SE,140,3.0,4.0,72,0.00,,,0.00,0,Wunderground v.1.15,2013-07-05 02:45:00,
2013-07-04 21:50:00,73.0,63.4,30.00,SE,140,4.0,4.0,72,0.00,,,0.00,0,Wunderground v.1.15,2013-07-05 02:50:00,
2013-07-04 21:55:00,72.7,63.1,30.00,SE,140,4.0,4.0,72,0.00,,,0.00,0,Wunderground v.1.15,2013-07-05 02:55:00,
2013-07-04 22:00:00,72.5,63.4,30.00,SE,139,5.0,5.0,73,0.00,,,0.00,0,Wunderground v.1.15,2013-07-05 03:00:00,
2013-07-04 22:05:00,72.4,63.3,30.00,SE,138,5.0,5.0,73,0.00,,,0.00,0,Wunderground v.1.15,2013-07-05 03:05:00,
2013-07-04 22:15:00,72.1,63.4,30.01,SE,138,4.0,5.0,74,0.00,,,0.00,0,Wunderground v.1.15,2013-07-05 03:15:00,
2013-07-04 22:20:00,72.0,63.3,30.00,SE,138,3.0,3.0,74,0.00,,,0.00,0,Wunderground v.1.15,2013-07-05 03:20:00,
2013-07-04 22:25:00,71.8,63.4,30.00,SE,138,3.0,3.0,75,0.00,,,0.00,0,Wunderground v.1.15,2013-07-05 03:25:00,
2013-07-04 22:30:00,71.6,63.3,30.00,SE,138,3.0,3.0,75,0.00,,,0.00,0,Wunderground v.1.15,2013-07-05 03:30:00,
2013-07-04 22:35:00,71.4,63.1,30.00,SE,138,3.0,4.0,75,0.00,,,0.00,0,Wunderground v.1.15,2013-07-05 03:35:00,
2013-07-04 22:40:00,71.2,62.9,30.00,SE,138,4.0,5.0,75,0.00,,,0.00,0,Wunderground v.1.15,2013-07-05 03:40:00,
2013-07-04 22:50:00,71.2,62.9,30.01,SE,138,4.0,4.0,75,0.00,,,0.00,0,Wunderground v.1.15,2013-07-05 03:50:00,
2013-07-04 22:55:00,71.2,62.9,30.00,SE,138,3.0,4.0,75,0.00,,,0.00,0,Wunderground v.1.15,2013-07-05 03:55:00,
2013-07-04 23:00:00,71.2,63.2,30.01,SE,138,3.0,3.0,76,0.00,,,0.00,0,Wunderground v.1.15,2013-07-05 04:00:00,
2013-07-04 23:05:00,71.1,63.1,30.01,SE,138,2.0,3.0,76,0.00,,,0.00,0,Wunderground v.1.15,2013-07-05 04:05:00,
2013-07-04 23:10:00,70.9,63.0,30.01,SE,138,2.0,2.0,76,0.00,,,0.00,0,Wunderground v.1.15,2013-07-05 04:10:00,
2013-07-04 23:15:00,70.7,63.1,30.01,SE,138,2.0,2.0,77,0.00,,,0.00,0,Wunderground v.1.15,2013-07-05 04:15:00,
2013-07-04 23:20:00,70.4,63.2,30.01,SE,138,2.0,2.0,78,0.00,,,0.00,0,Wunderground v.1.15,2013-07-05 04:20:00,
2013-07-04 23:25:00,70.2,63.0,30.01,SE,138,2.0,3.0,78,0.00,,,0.00,0,Wunderground v.1.15,2013-07-05 04:25:00,
2013-07-04 23:30:00,70.0,62.8,30.01,SE,138,3.0,3.0,78,0.00,,,0.00,0,Wunderground v.1.15,2013-07-05 04:30:00,
2013-07-04 23:35:00,69.9,63.1,30.01,SE,138,2.0,3.0,79,0.00,,,0.00,0,Wunderground v.1.15,2013-07-05 04:35:00,
2013-07-04 23:40:00,69.6,63.2,30.01,SE,138,1.0,1.0,80,0.00,,,0.00,0,Wunderground v.1.15,2013-07-05 04:40:00,
2013-07-04 23:45:00,69.4,63.0,30.01,SE,138,0.0,1.0,80,0.00,,,0.00,0,Wunderground v.1.15,2013-07-05 04:45:00,
2013-07-04 23:55:00,68.8,63.1,30.01,SE,138,0.0,0.0,82,0.00,,,0.00,0,Wunderground v.1.15,2013-07-05 04:55:00,